GFSFLT1_250_rhum_009.txt.gz
RH
99 98 97 98 96 96 96 95 88 73 64 56 46 40 49 58 58 44 28 26 27 29 34 39 40 39 37 36 38 41 44 42
74 63 52 40 40 43 50 55 51 46 43 48 60 43 29 24 28 31 32 30 29 28 27 30 39 45 41 45 46 45 43 45
62 58 48 38 40 41 41 44 55 53 34 27 31 32 31 30 32 37 41 45 46 50 57 58 56 55 53 49 44 46 54 60
33 35 39 52 68 67 44 30 34 37 37 36 35 36 38 38 42 45 48 53 52 52 53 50 45 41 39 36 38 45 48 50
75 69 40 46 37 41 42 42 42 38 35 35 38 40 37 39 40 38 36 34 37 38 36 35 33 34 34 35 36 37 40 48
20 33 43 44 44 40 36 35 38 39 40 41 41 43 52 56 58 60 63 62 50 40 33 30 34 36 38 44 50 56 62 74
40 43 42 38 37 38 39 41 44 42 44 47 53 62 67 65 59 64 71 71 64 54 49 50 53 53 55 58 65 65 64 66
45 40 40 41 40 40 40 43 49 54 62 69 75 76 71 67 67 70 66 61 59 60 64 64 58 55 56 55 56 58 54 48
42 43 43 44 41 39 42 47 51 54 64 71 72 77 77 71 68 74 70 65 60 59 59 57 55 54 54 53 51 48 44 42
47 47 52 51 46 40 45 56 62 58 60 66 77 93 93 89 84 82 77 67 66 67 63 54 51 53 55 54 45 47 38 32
50 50 53 54 50 47 46 52 52 57 73 77 85 99 98 90 84 85 71 72 74 64 55 54 56 58 58 56 50 41 30 23
55 58 62 61 50 44 48 60 66 81 84 80 85 91 86 80 80 77 80 72 66 64 64 62 60 62 56 49 40 31 22 15
80 80 77 67 47 53 65 72 77 81 83 84 86 94 84 79 80 82 71 69 69 66 66 59 66 62 45 37 34 26 16 15
72 75 75 86 75 62 66 74 79 75 84 92 92 90 84 82 86 78 76 73 70 70 71 72 57 36 31 26 20 14 14 11
79 83 100 92 64 61 70 77 77 84 90 92 84 85 87 90 83 79 81 80 77 78 72 48 33 22 19 15 13 14 11 9
81 100 94 69 67 69 69 86 83 94 94 94 92 93 96 88 82 85 77 72 74 74 57 32 17 12 12 11 13 11 9 8
91 76 69 71 70 74 78 83 99 98 97 98 98 87 89 90 94 88 82 80 71 52 27 14 10 11 11 12 11 10 8 7
75 75 73 78 73 76 89 100 100 97 94 90 89 95 87 78 76 83 79 65 44 28 28 16 12 13 12 11 10 8 7 7
69 68 73 71 78 88 94 89 82 90 99 94 90 85 88 93 90 67 49 31 28 25 17 13 14 13 10 10 8 7 7 6

GFSFLT1_250_rhum_015.txt.gz
RH
93 79 82 78 93 98 92 89 92 100 100 100 100 100 98 94 97 100 100 92 73 53 46 37 30 23 22 22 23 27 34 42
71 74 98 100 100 100 100 99 98 93 93 100 100 100 85 81 82 81 66 45 39 32 23 22 23 27 28 30 37 42 46 42
80 92 76 73 84 96 97 76 82 76 71 71 69 55 47 42 38 36 29 24 26 35 41 37 38 40 45 53 59 60 57 54
74 79 82 81 74 73 74 64 57 48 42 44 49 43 32 28 25 24 30 35 32 37 42 47 49 54 59 60 59 55 53 51
28 19 14 20 25 31 38 50 58 67 48 38 31 28 26 27 30 32 35 38 48 53 50 54 56 58 53 51 52 49 48 47
65 65 49 62 62 53 60 49 52 39 32 29 27 26 26 25 27 32 40 44 47 48 48 51 53 50 53 56 53 51 50 46
100 29 23 25 40 64 55 43 35 33 32 31 29 30 33 36 36 38 43 44 46 47 51 54 50 55 60 60 58 55 50 48
94 34 46 44 45 42 38 36 36 37 37 38 40 41 39 36 42 50 51 49 52 54 59 58 64 65 64 59 58 57 57 54
89 50 54 47 38 39 46 51 54 58 56 51 54 69 97 77 73 51 55 56 56 61 57 64 70 69 64 71 69 67 56 59
65 99 92 56 44 52 50 48 57 59 59 68 82 99 90 75 62 57 54 54 59 60 68 79 74 67 74 75 64 56 59 56
59 59 48 45 40 42 47 47 60 67 72 83 90 85 66 61 53 52 57 62 60 66 78 78 75 80 70 66 57 57 60 39
40 40 43 50 53 53 54 55 62 64 68 66 64 58 50 52 55 62 62 59 65 72 74 87 92 82 70 59 55 61 48 34
38 36 42 49 56 73 70 66 65 74 79 74 61 47 51 51 56 64 61 61 74 79 92 78 70 62 57 56 57 42 35 27
52 45 45 56 69 71 75 81 82 70 61 58 48 48 53 61 67 66 69 75 86 82 72 68 58 57 55 41 38 33 32 26
39 47 54 58 64 83 94 83 64 58 52 50 51 55 65 68 70 73 77 87 81 72 65 58 56 53 43 32 26 23 20 20
40 55 57 58 62 60 59 59 52 51 53 53 53 68 70 73 76 75 81 79 71 66 59 53 44 35 26 22 19 17 15 12
80 63 62 66 67 69 68 68 60 55 60 58 70 69 72 73 76 78 79 73 66 57 49 46 34 27 26 24 19 14 12 11
79 82 85 79 83 74 62 64 62 62 61 69 72 81 81 85 84 84 72 65 60 58 55 44 38 33 36 28 16 14 12 10
74 78 87 88 68 65 65 66 71 68 71 76 76 88 92 93 84 70 64 66 56 51 40 35 30 26 20 15 14 12 10 9

GFSFLT1_250_rhum_018.txt.gz
RH
97 80 97 100 100 91 82 67 68 68 66 70 88 92 100 100 100 100 100 100 86 92 78 68 51 41 34 30 28 30 32 32
100 100 97 83 51 46 50 60 69 80 87 79 94 99 97 92 88 89 85 85 80 55 42 34 30 29 27 29 29 30 32 33
74 78 87 91 70 67 74 88 82 88 87 97 97 82 80 77 70 64 57 51 40 34 28 26 28 28 28 27 29 33 34 34
70 69 71 61 67 70 83 78 77 71 67 72 67 57 51 51 48 44 40 32 28 26 26 23 23 26 30 34 36 37 38 41
100 100 97 65 32 25 21 27 36 37 47 60 69 72 57 41 35 31 29 28 27 28 26 27 29 29 33 37 36 36 41 48
81 73 48 47 35 42 57 58 58 54 52 56 64 42 38 37 37 35 32 31 28 29 29 29 30 36 39 42 40 43 49 60
70 35 60 78 36 44 69 58 52 55 46 44 40 37 37 35 35 36 31 32 31 36 35 38 36 42 44 44 48 56 65 68
62 50 52 57 55 76 63 49 62 48 45 51 43 44 38 35 33 33 34 39 40 42 41 40 46 50 53 54 57 64 71 77
43 43 58 62 59 58 55 52 58 55 63 44 40 33 37 44 44 45 47 43 42 41 43 53 55 57 55 60 66 74 79 72
66 94 85 89 92 85 61 68 78 58 50 51 50 53 53 45 48 51 49 46 49 53 54 55 59 54 64 73 83 76 68 60
54 76 68 61 61 56 53 52 52 67 67 59 61 54 52 50 52 58 55 52 56 57 57 61 58 65 78 83 75 72 59 53
63 69 63 57 56 51 45 43 47 69 68 62 55 53 52 52 64 65 57 62 62 58 67 67 69 84 81 75 68 56 52 46
66 62 55 50 45 37 38 49 60 54 44 46 57 61 67 73 78 60 65 58 57 63 70 76 78 75 73 66 58 56 45 34
61 50 44 45 45 55 61 59 57 58 67 79 82 80 77 71 64 64 58 59 61 71 73 76 76 71 68 62 53 39 34 33
58 63 51 45 62 74 71 76 87 88 84 81 75 70 56 58 61 61 67 63 67 73 79 77 76 80 69 49 38 38 35 29
29 34 53 69 63 59 51 50 57 58 56 54 53 54 61 64 67 69 69 71 76 79 78 78 87 66 59 50 38 30 26 21
73 70 56 44 47 48 49 49 50 47 48 56 69 80 73 68 68 71 76 77 75 74 77 88 78 72 48 39 30 21 17 14
74 76 64 65 66 58 53 56 60 67 72 83 90 82 71 67 72 77 80 78 72 80 94 87 81 56 43 36 28 19 14 12
79 70 73 84 77 73 68 67 73 72 72 83 83 82 70 66 81 80 76 69 80 94 95 80 61 43 35 25 16 14 11 9

GFSFLT1_250_rhum_021.txt.gz
RH
100 100 100 100 100 100 100 100 100 100 100 100 100 98 92 83 92 92 89 100 90 85 79 76 67 60 51 45 39 32 28 30
100 100 100 100 100 100 100 100 100 100 92 89 78 70 70 78 87 100 96 83 68 74 67 54 48 43 38 34 30 30 30 28
86 100 100 100 100 100 100 86 88 81 70 64 66 72 75 77 70 64 66 66 56 51 49 44 37 32 31 30 28 27 26 28
72 99 100 100 99 99 76 83 67 52 53 56 61 56 54 52 44 46 58 63 52 40 36 33 33 34 32 30 29 34 37 37
62 64 81 76 64 71 91 77 55 27 20 20 28 45 58 56 53 56 46 38 35 34 35 38 40 37 34 35 40 41 38 36
80 73 64 50 60 57 53 43 28 42 51 54 47 53 42 42 45 43 38 35 38 41 40 39 41 42 44 45 43 38 35 37
69 69 61 52 47 50 52 39 48 61 57 73 75 70 44 42 54 47 40 44 47 44 42 42 41 42 42 43 39 39 40 51
59 57 42 58 80 74 78 60 70 84 83 78 69 57 48 56 58 44 43 48 46 43 38 41 43 43 44 44 43 45 54 61
24 37 89 97 100 100 100 82 73 87 92 100 100 78 61 58 46 45 50 48 42 39 39 45 49 50 48 48 52 56 60 68
81 82 84 100 100 100 91 100 100 98 90 90 64 49 49 48 47 45 47 43 44 51 57 53 52 51 56 61 61 67 74 83
50 38 48 67 78 74 68 70 65 75 60 45 48 47 52 55 53 50 45 53 57 55 52 54 55 55 67 68 72 78 83 80
43 74 72 57 51 56 57 58 51 50 49 66 63 62 60 59 54 54 63 62 64 56 59 55 56 67 73 75 79 80 79 75
62 67 54 55 68 66 59 51 59 50 45 54 50 50 50 53 63 67 68 65 60 61 65 58 65 77 77 79 74 72 85 94
61 60 64 68 64 56 48 56 67 62 64 71 70 70 75 76 71 66 62 67 64 71 68 66 81 80 80 74 75 95 83 69
64 78 80 88 94 87 72 79 91 98 100 93 77 66 68 67 60 58 67 71 70 68 67 84 79 78 75 77 98 89 74 55
89 97 98 83 71 76 77 83 86 77 68 64 56 58 60 60 59 61 69 73 74 68 82 81 77 79 82 89 88 73 61 42
72 61 55 65 71 81 85 75 71 73 68 58 63 58 56 57 63 69 76 79 71 72 77 88 94 86 88 88 79 62 43 31
72 73 72 67 69 68 53 51 54 61 58 57 55 60 68 72 75 78 79 76 76 92 87 80 81 80 87 76 64 58 35 24
77 75 74 85 84 77 74 74 72 63 63 65 74 78 78 80 78 79 82 86 85 88 87 83 89 91 80 70 65 37 32 24

GFSFLT1_250_rhum_024.txt.gz
RH
100 100 100 100 88 80 73 76 71 64 57 71 77 90 88 74 76 98 99 96 94 82 81 84 85 73 61 48 45 38 33 31
100 100 95 100 100 100 92 82 100 93 100 100 100 92 83 86 96 85 73 69 70 74 70 61 51 45 42 35 33 33 36 36
100 100 100 95 93 100 98 99 99 100 100 100 97 93 85 71 64 64 61 64 66 50 49 49 40 34 35 38 39 37 33 34
94 100 100 100 100 100 100 100 100 100 100 100 95 85 69 47 45 46 38 42 49 43 38 38 41 39 43 40 36 36 40 43
96 88 77 66 66 83 100 100 96 82 66 59 60 64 54 34 49 52 44 35 37 42 48 46 40 40 40 39 41 42 46 48
81 81 81 84 89 88 79 80 66 62 58 53 45 37 44 55 41 28 30 33 42 50 48 42 40 40 43 42 43 46 49 51
68 61 62 63 65 65 70 62 67 70 57 73 63 70 51 43 34 26 38 43 49 50 45 43 45 44 43 45 50 50 53 51
74 65 66 59 52 52 64 52 55 64 80 100 100 75 60 65 50 50 49 50 52 53 47 48 47 50 50 58 59 53 53 53
69 68 73 65 40 40 48 67 79 71 97 100 98 92 83 88 77 61 48 61 50 46 52 53 54 54 57 58 53 49 52 57
83 78 44 38 60 75 69 71 76 76 90 99 83 92 92 81 62 62 70 53 48 51 55 56 55 56 61 57 53 55 55 56
39 37 53 58 46 58 79 98 89 70 70 90 100 100 89 64 71 62 56 55 58 55 56 53 52 55 59 55 56 55 56 64
74 61 46 46 64 76 66 57 65 68 86 94 100 98 75 68 65 61 58 58 52 50 52 55 62 61 58 58 54 61 70 77
67 46 56 61 66 61 62 73 96 100 100 100 98 84 75 70 65 58 55 50 54 57 66 71 68 61 60 61 68 80 83 80
48 56 66 67 66 68 82 100 100 99 92 78 59 62 74 67 61 58 53 61 64 76 75 72 71 70 72 78 83 79 80 76
54 70 74 84 72 83 89 91 89 75 65 75 76 78 77 71 67 64 68 68 76 79 79 77 79 80 82 85 79 82 79 77
51 70 77 71 77 80 82 93 78 70 72 77 79 81 81 78 81 76 73 80 85 83 77 79 88 87 84 83 84 89 86 83
69 69 64 69 80 81 76 70 76 93 96 97 96 92 88 87 77 72 76 75 76 75 85 81 86 77 85 87 92 92 92 80
70 68 77 78 76 76 75 82 92 98 96 88 82 80 79 70 67 70 75 76 78 85 91 90 90 99 91 91 92 93 75 56
91 90 82 82 78 80 85 88 91 82 71 70 76 73 64 66 73 83 86 84 89 96 88 86 95 97 94 93 87 71 57 52

GFSFLT1_250_rhum_030.txt.gz
RH
100 100 100 100 100 100 100 100 100 100 100 100 100 100 100 100 100 100 100 100 98 88 93 92 77 72 69 71 59 52 46 37
100 100 100 100 100 100 100 100 100 100 100 100 100 100 100 100 100 93 100 100 98 88 97 89 71 63 54 51 50 44 38 34
100 100 93 100 95 99 100 100 100 80 78 86 99 96 93 98 99 93 86 77 82 87 73 72 58 42 46 43 40 39 34 28
94 100 86 100 100 98 69 83 73 74 72 72 65 68 71 68 72 72 72 70 88 80 65 51 42 39 45 42 43 45 38 35
98 100 96 81 100 94 100 100 98 76 66 64 57 66 63 66 77 87 83 75 62 55 50 46 49 43 43 52 52 49 42 47
90 79 90 90 96 99 99 99 95 90 88 91 86 80 76 67 62 53 58 52 51 49 60 66 60 53 55 60 58 59 54 46
71 67 74 66 64 65 64 58 62 59 54 54 62 72 68 78 72 63 51 48 59 77 65 62 53 52 54 62 55 45 45 52
81 100 92 74 71 66 60 60 61 67 72 69 64 69 61 53 72 73 85 67 85 88 57 60 46 52 57 48 54 66 54 54
88 70 71 83 78 85 83 77 75 70 75 67 57 60 76 98 100 100 100 100 100 98 67 68 83 98 84 86 71 60 60 56
78 67 74 77 87 99 97 79 58 53 62 70 78 100 100 100 100 100 100 87 76 100 100 100 100 100 96 79 74 68 61 63
80 76 66 66 74 76 72 59 57 59 69 82 93 99 94 100 100 98 99 100 100 96 100 100 100 81 72 68 62 61 68 70
83 86 73 68 71 56 45 57 79 93 70 69 78 74 82 92 100 100 100 100 100 100 100 96 90 82 86 74 71 78 74 77
96 93 97 98 86 59 38 61 69 69 73 76 74 79 76 100 100 100 100 100 100 100 94 86 84 93 92 91 87 88 80 77
85 91 100 100 92 57 72 78 65 79 80 72 73 99 100 100 100 100 98 93 91 80 74 72 79 96 84 82 87 89 95 96
76 87 97 100 78 92 100 84 78 78 78 77 90 91 99 99 100 97 90 80 72 63 76 87 98 90 92 98 94 93 93 89
46 58 91 99 98 93 74 74 76 83 84 84 78 82 90 94 87 82 79 70 67 89 96 95 94 91 100 95 94 85 72 75
74 80 81 100 90 68 59 59 81 89 92 92 92 93 89 84 81 80 76 77 95 99 100 98 100 100 100 94 80 77 83 87
93 88 67 61 68 43 40 62 80 92 96 97 99 97 92 88 82 80 95 100 100 100 99 100 100 99 92 83 85 84 90 90
87 73 58 46 40 42 47 47 65 90 97 95 89 86 90 92 92 100 100 97 93 98 100 100 96 87 83 79 79 89 94 96

GFSFLT1_250_rhum_033.txt.gz
RH
100 100 98 100 100 100 100 100 100 97 100 100 100 100 100 100 100 100 100 100 99 100 100 99 100 100 96 95 86 84 74 61
100 100 97 100 100 100 100 100 100 92 100 100 100 100 100 100 100 100 100 100 100 100 100 82 100 100 91 76 75 66 53 47
97 100 100 99 80 98 100 100 100 100 95 90 98 100 100 98 100 100 100 100 99 99 99 98 91 87 79 72 58 51 45 44
100 100 100 100 100 90 64 88 100 100 100 100 100 97 94 94 97 96 96 91 89 86 79 74 74 68 66 60 53 51 56 57
84 100 94 100 100 100 100 100 95 77 64 62 43 44 45 48 59 66 66 58 62 68 62 62 56 49 54 57 59 66 58 44
99 58 100 100 100 97 88 100 100 100 100 100 100 100 87 79 78 80 78 73 68 60 54 49 51 73 70 73 64 46 44 41
98 96 85 90 95 97 89 78 70 66 68 64 68 73 76 71 66 59 56 52 54 62 54 49 67 59 50 77 70 47 48 37
94 82 64 58 56 57 60 59 52 50 59 60 56 59 60 60 56 64 61 71 79 74 78 90 77 76 84 70 61 79 74 67
61 79 72 63 66 67 64 65 62 58 58 54 58 55 58 69 63 77 88 98 88 100 100 100 100 71 64 99 100 100 94 87
97 100 100 93 79 71 69 65 63 63 57 65 86 57 45 46 85 100 100 100 100 85 73 70 86 100 100 100 100 100 94 81
96 94 78 94 94 86 83 93 91 70 64 60 85 39 42 66 98 100 100 100 100 100 88 92 99 100 100 100 100 98 90 80
74 76 87 98 77 64 76 95 100 95 58 42 44 57 71 81 100 100 100 100 100 100 100 100 100 100 100 99 93 89 77 81
60 63 73 68 61 63 67 74 88 91 62 60 58 68 72 85 92 92 100 100 100 100 100 100 100 100 91 93 85 78 79 84
72 67 66 69 74 77 82 83 82 81 59 64 70 74 77 77 87 84 81 97 100 100 99 93 96 87 79 78 87 84 84 86
85 82 74 81 81 81 94 89 77 68 81 87 80 74 98 99 88 86 88 97 97 88 84 81 78 83 84 88 90 98 99 89
50 58 53 54 59 62 76 81 72 72 84 78 85 86 85 100 97 93 91 88 82 84 91 91 89 91 90 99 99 100 100 100
38 39 60 62 49 62 88 98 98 94 75 62 69 83 90 99 100 100 98 100 100 100 95 85 96 95 99 100 100 100 100 92
74 63 58 49 52 52 62 83 96 98 73 49 46 62 91 100 100 100 100 100 90 79 96 99 99 100 100 99 99 97 94 95
47 50 43 35 39 39 39 45 46 44 46 48 52 58 58 63 69 77 78 86 99 100 100 100 100 97 96 96 85 82 84 84

GFSFLT1_250_rhum_036.txt.gz
RH
72 78 73 64 46 44 57 58 84 78 94 91 100 100 100 100 100 100 100 100 100 92 100 100 100 100 100 98 84 98 100 99
100 100 100 61 83 100 90 78 95 100 100 100 100 100 100 100 100 100 100 100 100 100 100 100 100 100 100 100 100 94 85 90
100 99 99 100 89 100 100 100 100 100 100 84 96 88 100 100 100 100 100 100 100 99 92 96 100 100 95 89 85 86 80 73
94 100 94 68 100 100 100 94 97 100 100 100 99 93 94 90 85 95 100 100 100 100 98 91 92 82 84 80 72 68 64 62
100 100 100 100 89 86 63 83 100 100 87 97 83 79 68 97 86 82 71 83 70 69 70 76 77 72 71 67 60 63 56 51
100 84 99 100 100 100 100 100 96 100 100 87 88 88 79 75 66 78 62 48 47 62 60 72 71 68 61 56 54 74 49 47
100 100 84 65 88 89 85 100 100 85 76 95 97 96 89 81 77 77 77 74 78 76 78 70 59 57 51 45 64 77 78 73
92 100 100 100 76 70 95 88 92 95 94 76 56 53 47 47 44 56 58 57 70 76 72 62 62 67 68 86 98 100 85 86
69 94 100 99 89 67 56 54 52 62 51 46 44 44 43 58 67 81 82 92 89 81 63 61 75 80 82 89 99 100 90 73
58 58 86 68 76 61 59 58 55 54 48 44 52 60 62 100 72 90 100 99 92 91 100 81 88 79 67 64 64 64 77 94
55 57 51 54 87 100 100 70 62 58 50 56 53 60 96 77 100 64 89 100 100 100 100 100 84 98 100 100 100 100 100 100
68 69 72 67 69 57 59 80 100 59 54 52 88 67 83 100 95 70 95 100 100 100 100 100 100 98 98 97 100 100 100 100
66 57 61 64 68 75 70 82 77 69 53 62 80 91 91 71 74 95 92 93 100 100 100 100 98 100 100 100 100 99 94 92
36 61 72 74 76 72 70 68 65 67 62 59 89 90 58 79 79 77 74 82 84 91 100 100 92 89 94 99 94 90 83 88
45 36 34 53 64 68 68 69 68 54 52 48 65 73 68 68 65 70 71 71 80 89 89 90 95 100 98 90 81 85 97 100
52 44 33 29 30 31 37 38 48 60 62 56 61 70 66 67 68 65 65 62 73 96 93 96 95 89 84 95 98 94 88 82
47 40 46 52 54 62 60 61 68 72 70 59 57 66 76 75 72 54 43 42 48 57 65 78 87 96 95 92 93 92 97 96
44 45 40 41 33 30 40 51 48 40 40 44 42 41 41 41 45 47 55 64 77 87 96 100 98 100 99 93 93 91 92 86
39 42 47 54 57 55 55 51 53 50 49 58 60 57 56 59 63 67 76 83 91 92 94 92 88 86 87 97 89 85 86 81

GFSFLT1_250_rhum_039.txt.gz
RH
91 100 100 100 100 100 100 100 100 100 100 95 77 53 66 98 100 100 100 100 100 100 100 100 100 98 100 100 100 100 100 100
93 94 75 67 90 97 68 100 100 100 94 80 59 45 53 76 99 100 100 100 100 100 75 86 85 92 100 100 100 100 100 100
99 77 75 86 95 86 94 88 83 94 77 61 40 34 71 89 100 100 100 100 100 100 100 100 100 100 100 100 100 100 100 99
76 75 89 93 74 56 60 56 58 60 65 49 41 84 92 73 76 100 100 100 100 100 98 100 100 100 100 95 88 79 87 85
96 92 100 100 98 93 64 75 94 90 93 97 100 100 100 96 96 88 73 74 62 82 87 84 79 73 94 79 87 76 75 75
100 100 100 100 100 61 78 100 100 100 100 100 100 100 72 81 100 100 100 94 92 100 100 86 85 76 76 85 85 76 65 51
81 100 100 100 100 100 89 85 82 84 63 79 71 62 84 100 91 96 91 84 68 65 71 72 67 54 52 56 67 58 48 49
53 72 100 100 93 75 84 95 87 80 99 100 100 98 82 53 57 64 49 46 60 75 91 79 74 64 73 73 71 62 62 73
54 56 64 100 95 97 97 84 71 72 76 74 65 60 62 64 52 44 41 46 64 99 96 97 98 100 87 76 72 76 92 94
60 65 58 58 80 100 94 67 49 44 42 40 41 40 42 40 40 44 53 66 84 98 100 100 100 100 95 85 91 96 100 97
71 60 52 56 60 62 69 58 60 100 100 100 83 100 78 46 70 94 91 71 70 100 96 100 100 100 100 98 99 100 100 100
24 52 46 54 82 87 71 43 100 100 100 100 78 99 100 92 100 100 90 100 100 100 100 100 100 100 100 100 100 100 100 100
28 23 45 50 55 80 76 64 92 100 100 100 76 96 100 100 96 100 100 100 90 100 100 100 100 100 100 100 100 100 100 100
33 30 40 34 40 42 51 63 69 85 100 100 95 90 100 96 98 100 100 100 100 100 100 100 99 78 88 87 94 100 100 100
27 38 46 48 39 28 29 43 61 84 100 94 95 98 85 93 96 100 88 90 100 96 89 77 68 82 71 61 59 67 83 79
22 30 48 47 48 47 38 28 34 63 48 44 40 34 29 41 74 77 63 60 58 57 52 52 52 45 43 46 54 64 80 86
31 29 36 40 44 39 34 35 42 40 38 36 35 34 28 27 29 28 26 27 29 32 34 36 37 46 62 70 77 78 79 87
40 32 32 35 39 42 43 42 42 44 43 42 37 37 38 38 37 39 43 46 48 49 49 51 56 60 61 68 75 82 78 82
48 41 34 35 37 44 39 37 37 38 41 47 52 56 65 66 59 65 76 76 62 56 57 60 67 80 88 88 88 85 85 73

GFSFLT1_250_rhum_045.txt.gz
RH
41 39 43 65 99 100 100 100 100 100 100 100 100 100 100 89 88 90 70 63 78 90 89 98 100 90 85 72 100 100 80 81
58 63 44 45 70 99 100 100 100 100 100 100 100 100 100 96 81 77 67 82 94 98 97 100 91 71 85 72 67 61 72 100
44 50 67 58 56 75 99 100 100 100 100 100 100 100 98 92 91 78 75 97 97 99 100 76 69 80 100 100 100 100 100 100
37 49 66 58 67 69 100 100 100 100 100 100 100 100 94 94 83 100 100 100 100 96 81 80 77 94 87 84 90 88 99 83
45 40 52 62 64 93 100 96 100 100 100 100 100 100 100 100 100 100 93 90 87 77 90 88 100 81 96 100 98 89 96 97
46 39 43 46 62 68 100 100 100 100 100 100 100 100 100 100 95 91 87 79 71 83 87 100 97 82 97 99 84 76 73 59
27 46 43 45 62 73 85 89 100 100 100 100 100 100 97 97 87 80 74 70 68 76 89 82 79 81 81 76 63 61 56 50
26 29 46 43 48 91 92 100 96 80 80 79 78 80 86 82 80 87 76 85 85 78 67 73 79 77 63 48 51 48 49 38
30 24 30 48 44 56 94 100 100 80 65 73 66 64 71 70 87 76 58 49 51 97 100 75 72 87 97 94 66 98 90 52
30 28 25 26 46 45 65 96 100 100 100 100 100 86 78 89 70 58 57 75 100 72 55 63 45 33 87 69 73 99 93 99
32 28 27 24 24 38 48 54 68 83 87 76 88 80 68 56 60 64 78 84 85 75 45 82 99 100 100 99 100 78 96 100
36 34 26 23 22 24 29 48 46 55 63 74 77 78 85 72 58 56 68 96 98 71 100 100 100 100 100 100 100 100 98 100
44 46 29 27 23 19 20 30 37 48 51 50 58 60 68 77 67 61 85 99 93 100 99 100 100 100 100 100 100 98 100 95
52 52 46 29 28 23 21 26 25 36 49 56 68 70 69 67 64 66 100 84 86 97 100 100 100 100 100 100 100 98 72 93
54 48 47 32 30 31 29 26 28 32 41 48 57 72 88 80 78 89 78 83 100 100 100 100 100 100 100 95 64 85 100 100
56 52 51 55 52 33 32 30 28 34 41 44 44 56 68 91 85 77 85 72 73 99 92 100 100 100 100 97 100 100 100 100
62 54 49 80 58 52 28 30 34 30 32 40 46 46 59 85 100 86 99 100 100 86 73 78 98 100 100 100 100 100 100 97
68 61 56 81 97 82 44 29 30 35 35 31 35 52 69 76 89 99 100 100 100 100 100 100 100 100 100 95 81 59 46 42
82 65 60 64 94 96 73 39 40 34 41 40 38 59 80 97 100 100 100 100 95 83 66 52 48 44 46 46 48 48 50 52

GFSFLT1_250_rhum_048.txt.gz
RH
47 38 52 100 89 100 100 100 100 100 100 100 100 98 89 88 93 94 93 92 96 93 84 72 71 74 80 64 73 66 69 82
50 42 36 79 80 89 100 100 100 100 100 100 100 100 100 100 100 100 100 97 90 100 88 73 67 86 70 80 72 65 88 98
31 41 36 33 61 83 99 100 100 100 100 100 100 100 100 100 90 86 100 98 100 100 97 98 75 100 80 80 84 81 97 98
22 38 41 41 46 47 85 89 99 100 100 100 100 100 100 100 100 98 100 100 100 99 100 100 97 90 84 80 90 94 83 100
21 22 40 38 48 60 69 83 99 100 100 100 100 100 100 100 100 100 100 100 100 100 100 100 89 89 88 79 86 94 100 94
26 23 30 45 38 63 73 84 81 96 100 100 100 100 100 100 100 100 100 100 100 100 95 96 91 85 95 93 94 82 63 50
30 25 25 36 44 39 57 61 85 100 100 100 100 100 100 100 100 100 100 100 100 100 93 100 90 76 88 80 75 64 45 50
33 26 27 27 37 42 38 47 56 67 100 100 100 100 100 100 99 100 97 100 100 100 100 97 86 97 81 79 58 41 40 43
36 36 26 27 30 32 46 43 78 95 74 90 100 100 100 99 100 100 98 89 100 100 98 99 97 92 75 49 35 30 24 46
36 41 40 32 27 28 31 40 43 71 100 100 99 99 95 94 82 87 100 95 94 93 100 100 95 91 66 42 31 66 75 74
43 44 46 52 45 29 26 28 32 41 64 93 100 100 100 100 100 100 98 90 78 79 92 92 95 84 56 40 59 63 100 86
63 46 39 47 49 44 29 25 25 26 32 45 72 95 100 100 100 94 92 80 72 67 68 75 79 77 44 94 100 100 100 99
83 58 39 38 48 42 41 29 25 23 28 31 46 47 48 65 79 78 79 62 73 68 56 54 70 58 45 76 100 100 100 100
93 75 57 41 41 46 42 43 28 26 28 34 30 30 33 44 50 55 63 60 69 65 61 67 58 63 57 41 74 96 100 93
100 93 71 51 44 49 43 64 39 29 29 30 40 39 39 45 50 62 73 76 76 77 70 80 64 58 64 58 57 53 60 88
100 100 87 73 57 50 49 54 64 35 29 28 27 34 48 57 60 62 76 81 81 88 100 96 75 84 93 88 100 100 100 100
100 100 94 88 68 59 58 62 71 70 42 28 29 30 34 40 48 48 48 61 74 78 86 89 100 100 100 100 100 100 100 100
100 100 100 96 86 71 88 84 75 67 60 44 31 26 28 32 34 39 48 59 74 85 100 100 100 100 100 100 100 97 88 69
100 100 100 100 94 94 71 77 100 96 80 69 52 38 34 31 33 36 50 82 96 98 100 100 100 99 84 72 61 55 52 50